Tracking 19297 objects as of 21-Nov-2018
HD Live streaming from Space Station
objects crossing your sky now

RADUGA 20

Track RADUGA 20 now!
RADUGA 20 is classified as:


NORAD ID: 17611
Int'l Code: 1987-028A
Perigee: 36,948.2 km
Apogee: 37,146.0 km
Inclination: 16.7 °
Period: 1,500.6 minutes
Semi major axis: 43418 km
RCS: 2.0634 m2 (large)
Launch date: March 19, 1987
Source: Commonwealth of Independent States (former USSR) (CIS)
Launch site: TYURATAM MISSILE AND SPACE COMPLEX (TTMTR)
aabbcc
Your satellite tracking list
Your tracking list is empty




NASA's NSSDC Master Catalog

Two Line Element Set (TLE):
1 17611U 87028A   18325.48178319 -.00000080  00000-0  00000+0 0  9999
2 17611  16.6997 351.0831 0022778  99.3414  48.5985  0.95961574111764
Source of the keplerian elements: AFSPC